SCP
0 0 0 0 0 0 0 0 0 0 0 0 0 0 0 0 0 0 0 0 0 0 0 0 0 0 0 0 0 0 1 2 2 3 3 3 2 1 1 0 0 0 0 0
0 0 0 0 0 0 0 0 0 0 0 0 0 0 0 0 0 0 0 0 0 0 0 0 0 0 0 0 0 0 1 1 2 2 3 2 1 1 0 0 0 0 0 0
0 0 0 0 0 0 0 0 0 0 0 0 0 0 0 0 0 0 0 0 0 0 0 0 0 0 0 0 0 0 0 1 2 2 2 1 1 0 0 0 0 0 0 0
0 0 0 0 0 0 0 0 0 0 0 0 0 0 0 0 0 0 0 0 0 0 0 0 0 0 0 0 0 0 0 1 1 2 2 1 0 0 0 0 0 0 0 0
0 0 0 0 0 0 0 0 0 0 0 0 0 0 0 0 0 0 0 0 0 0 0 0 0 0 0 0 0 0 0 0 1 1 1 1 0 0 0 0 0 0 0 0
0 0 0 0 0 0 0 0 0 0 0 0 0 0 0 0 0 0 0 0 0 0 0 0 0 0 0 0 0 0 0 0 1 1 1 0 0 0 0 0 0 0 0 0
0 0 0 0 0 0 0 0 0 0 0 0 0 0 0 0 0 0 0 0 0 0 0 0 0 0 0 0 0 0 0 0 1 1 1 0 0 0 0 0 0 0 0 0
0 0 0 0 0 0 0 0 0 0 0 0 0 0 0 0 0 0 0 0 0 0 0 0 0 0 0 0 0 0 0 0 0 0 0 0 0 0 0 0 0 0 0 0
0 0 0 0 0 0 0 0 0 0 0 0 0 0 0 0 0 0 0 0 0 0 0 0 0 0 0 0 0 0 0 0 0 0 0 0 0 0 0 0 0 0 0 0
0 0 0 0 0 0 0 0 0 0 0 0 0 0 0 0 0 0 0 0 0 0 0 0 0 0 0 0 0 0 0 0 0 0 0 0 0 0 0 0 0 0 0 0
0 0 0 0 0 0 0 0 0 0 0 0 0 0 0 0 0 0 0 0 0 0 0 0 0 0 0 0 0 0 0 0 0 0 0 0 0 0 0 0 0 0 0 0
0 0 0 0 0 0 0 0 0 0 0 0 0 0 0 0 0 0 0 0 0 0 0 0 0 0 0 0 0 0 0 0 0 0 0 0 0 0 0 0 0 0 0 0
0 0 0 0 0 0 0 0 0 0 0 0 0 0 0 0 0 0 0 0 0 0 0 0 0 0 0 0 0 0 0 0 0 0 0 0 0 0 0 0 0 0 0 0
0 0 0 0 0 0 0 0 0 0 0 0 0 0 0 0 0 0 0 0 0 0 0 0 0 0 0 0 0 0 0 0 0 0 0 0 0 0 0 0 0 0 0 0
0 0 0 0 0 0 0 0 0 0 0 0 0 0 0 0 0 0 0 0 0 0 0 0 0 0 0 0 0 0 0 0 0 0 0 0 0 0 0 0 0 0 0 0
0 0 0 0 0 0 0 0 0 0 0 0 0 0 0 0 0 0 0 0 0 0 0 0 0 0 0 0 0 0 0 0 0 0 0 0 0 0 0 0 0 0 0 0
0 0 0 0 0 0 0 0 0 0 0 0 0 0 0 0 0 0 0 0 0 0 0 0 0 0 0 0 0 0 0 0 0 0 0 0 0 0 0 0 0 0 0 0
0 0 0 0 0 0 0 0 0 0 0 0 0 0 0 0 0 0 0 0 0 0 0 0 0 -0 0 0 0 0 0 0 0 0 0 0 0 0 0 0 0 0 0 0
0 0 0 0 0 0 0 0 0 0 0 0 0 0 0 0 0 0 0 0 0 0 0 0 0 0 0 0 0 0 0 0 0 0 0 0 0 0 0 0 0 0 0 0
0 0 0 0 0 0 0 0 0 0 0 0 0 -0 0 0 0 -0 0 0 0 0 0 0 0 0 0 0 0 0 0 0 0 0 0 0 0 0 0 0 0 0 0 0
0 0 0 0 0 0 0 0 0 0 0 0 0 -0 0 0 0 0 -0 -0 0 0 0 0 0 0 0 0 0 0 0 0 0 0 0 0 0 0 0 0 0 0 0 0
0 0 0 0 0 0 0 0 0 0 0 0 0 -0 0 0 0 0 0 0 0 0 0 0 0 0 0 0 0 0 0 0 0 0 0 0 0 0 0 0 0 0 0 0
0 0 0 0 0 0 0 0 0 0 0 0 -0 -0 0 0 0 0 0 0 0 0 0 0 0 0 0 0 0 0 0 0 0 0 0 0 0 0 0 0 0 0 0 0
0 0 0 0 0 0 0 0 0 0 0 -0 -0 -0 0 0 0 0 0 0 0 0 0 0 0 0 0 0 0 0 0 0 0 0 0 0 0 0 0 0 0 0 0 0
0 0 0 0 0 0 0 0 0 0 0 0 0 0 0 0 0 0 0 0 0 0 0 0 0 0 0 0 0 0 0 0 0 0 0 0 0 0 0 0 0 0 0 0
0 0 -0 -0 0 0 0 0 0 0 0 0 0 0 0 0 0 0 0 0 0 0 0 0 0 0 0 0 0 0 0 0 0 0 0 0 0 0 0 0 0 0 0 0
Wind_Speed
7 6 8 10 13 11 6 6 6 4 4 3 8 12 12 11 13 13 13 12 12 12 11 10 10 9 9 9 10 10 12 12 10 8 8 7 6 5 4 3 6 7 8 9
6 9 10 9 9 10 8 7 8 7 6 7 10 16 16 18 18 17 16 14 14 13 12 11 10 9 9 9 9 9 10 12 12 9 8 6 6 5 4 4 5 7 9 9
8 3 7 9 6 6 7 7 7 8 10 8 11 13 13 14 18 17 16 15 13 13 12 11 10 10 9 9 9 8 9 10 11 11 8 8 7 5 4 4 4 6 8 8
7 4 3 7 7 7 6 4 5 6 5 5 5 8 7 8 7 10 12 12 11 10 10 9 9 9 9 9 8 8 9 10 11 13 13 15 10 8 6 5 5 7 8 8
6 6 6 7 7 7 2 4 2 4 5 6 4 8 10 8 8 7 7 7 7 7 8 8 8 8 8 7 7 8 9 10 11 13 15 14 10 7 9 9 10 8 7 8
3 3 4 5 3 3 2 0 4 3 2 6 7 8 9 3 3 1 1 1 2 3 4 5 5 6 6 5 5 6 8 9 11 13 15 14 14 14 15 13 12 9 7 7
5 5 4 2 5 4 4 3 2 3 4 9 8 8 9 6 3 2 3 3 3 3 4 4 4 5 5 5 5 6 8 8 10 12 13 12 14 16 17 16 13 12 9 8
8 7 11 8 7 6 8 4 3 3 4 3 3 8 7 7 4 2 2 3 3 4 5 5 5 5 5 6 6 7 8 8 10 11 11 11 14 11 10 11 12 11 9 8
7 4 10 9 8 6 7 6 4 3 4 5 7 7 8 7 4 2 2 3 4 5 6 7 7 6 6 6 7 8 9 9 10 11 11 13 13 12 12 12 11 10 10 10
2 4 8 6 5 5 4 4 3 2 3 6 7 7 5 2 1 2 2 4 6 7 7 8 7 6 6 6 6 7 9 10 11 12 12 11 12 12 13 12 13 13 13 11
1 3 6 6 9 10 7 4 5 4 4 3 6 7 3 6 5 5 5 6 7 7 8 7 7 6 6 6 6 7 8 10 12 13 13 13 12 13 13 12 13 14 13 12
4 2 3 6 7 9 10 8 7 4 5 5 5 10 7 5 5 7 8 8 8 7 7 7 7 6 5 4 5 7 9 11 13 14 14 13 13 13 13 14 14 13 13 11
7 4 3 4 5 6 7 11 11 7 4 5 7 12 5 7 12 12 11 10 9 7 7 6 5 3 2 2 6 9 11 13 14 14 14 14 13 13 15 15 14 13 12 11
7 4 5 2 2 4 6 9 12 11 7 9 13 18 18 17 17 15 12 9 8 7 6 5 3 1 2 5 8 11 13 13 14 14 14 14 13 14 15 14 13 13 12 11
3 3 5 8 8 7 9 11 13 16 15 14 14 20 23 20 18 14 10 7 6 5 6 4 2 2 4 7 9 11 12 12 13 13 13 13 14 14 14 14 13 12 11 10
4 3 4 7 10 11 14 15 15 16 17 19 21 24 18 15 11 11 8 5 4 2 3 2 2 4 6 9 10 11 11 11 11 12 13 13 15 15 14 14 13 12 11 9
5 3 2 4 6 8 10 11 13 12 11 12 15 14 12 15 12 9 6 4 1 1 1 2 4 5 8 9 10 10 11 12 12 12 13 14 15 15 14 14 13 11 9 8
5 4 2 4 5 6 4 3 3 4 8 9 10 12 12 12 7 4 4 1 2 3 3 3 5 7 9 10 10 10 11 12 12 13 14 14 15 15 14 13 11 9 7 6
5 4 2 2 4 8 6 3 2 2 5 3 6 9 9 9 3 2 6 5 4 5 5 6 7 9 10 10 11 12 11 11 12 13 13 13 14 14 13 12 10 7 6 5
6 4 3 3 3 5 1 4 3 1 4 1 4 7 8 7 3 2 5 7 7 8 8 8 9 10 11 10 11 12 12 12 12 12 13 13 12 12 12 10 8 6 6 5
5 5 7 6 5 7 3 3 2 2 2 4 4 5 5 3 1 3 6 8 9 9 10 10 10 9 9 10 11 12 12 12 12 13 13 12 11 11 11 9 7 6 5 3
8 6 6 5 6 8 2 2 2 3 3 4 3 3 2 1 3 6 7 8 9 9 10 10 10 10 9 10 11 13 12 12 12 13 13 12 10 9 8 8 6 5 4 2
7 7 5 7 8 5 1 3 3 2 4 3 2 2 0 2 4 6 7 8 8 9 9 9 11 11 10 9 10 13 13 12 13 13 12 11 9 8 7 6 6 4 3 2
4 5 4 5 6 5 4 3 1 1 1 2 2 1 1 3 6 7 7 7 8 9 9 9 10 12 11 11 11 11 12 12 13 13 11 9 8 7 6 5 4 3 3 3
3 2 4 6 7 6 3 2 2 2 3 3 3 2 2 5 7 7 8 8 8 8 8 8 9 11 13 12 12 10 10 12 13 11 9 7 7 6 5 4 4 4 3 3
5 6 5 4 2 1 1 2 3 3 3 3 3 4 4 6 8 9 8 8 8 8 9 10 11 12 12 12 12 9 8 10 12 10 7 5 5 4 4 3 2 3 2 2
Wind_Direction
176 192 201 202 215 252 314 306 287 288 332 308 269 271 267 262 257 251 243 241 243 244 243 239 235 228 219 208 200 189 176 173 170 169 168 166 161 148 135 132 135 133 126 120
167 223 221 223 219 237 267 280 287 300 318 311 283 276 266 253 247 243 242 238 236 240 241 239 235 232 227 217 202 194 181 175 174 174 168 156 134 117 101 93 101 112 114 118
190 188 219 226 222 225 244 256 274 294 323 292 278 280 254 246 232 232 235 238 238 237 237 237 235 233 229 224 210 201 191 180 172 162 145 125 102 93 97 102 97 102 110 114
219 210 199 208 214 216 246 248 265 286 294 293 322 296 277 277 259 227 222 224 230 235 237 238 238 237 229 223 213 205 195 183 170 161 157 156 159 156 154 136 120 113 114 118
203 197 198 212 215 207 228 41 319 290 295 297 258 260 275 240 250 240 220 214 216 222 228 234 235 236 236 225 211 205 196 185 172 167 162 162 158 137 131 129 128 123 121 122
200 169 204 221 220 218 136 100 261 257 299 268 225 224 275 252 254 267 268 268 237 242 247 246 243 238 240 236 217 204 193 184 172 165 162 164 157 146 146 147 143 136 131 126
195 193 188 200 173 183 173 190 211 198 223 250 231 227 252 267 307 328 329 330 336 331 315 293 277 260 244 233 220 203 187 179 166 160 161 162 152 151 154 152 149 145 143 141
182 197 189 192 195 173 190 207 226 243 259 294 247 239 253 248 234 214 279 296 314 315 308 296 284 273 259 236 213 197 185 174 161 156 156 149 142 146 150 150 148 146 144 141
187 189 157 179 206 180 177 217 290 335 307 282 262 270 281 239 224 208 264 290 301 301 296 287 284 276 267 248 216 195 181 169 157 151 143 139 140 142 144 142 138 135 136 138
190 159 156 150 175 229 225 188 177 188 248 272 272 256 249 340 37 33 341 314 308 302 299 297 290 281 270 246 218 193 174 160 149 140 137 137 135 137 139 139 138 137 138 134
221 149 147 160 199 194 194 208 204 214 247 258 282 267 332 5 16 8 338 321 307 303 298 294 293 290 278 247 208 176 161 144 136 130 127 129 130 133 135 135 134 134 132 133
188 176 193 209 208 203 197 203 198 208 234 230 265 270 291 313 346 342 329 320 313 307 299 294 292 289 281 231 176 151 140 131 127 124 125 126 129 133 133 131 131 131 130 129
168 180 190 196 196 199 214 217 219 231 266 243 247 263 288 324 324 322 318 315 313 311 305 300 301 309 319 136 126 122 121 120 120 122 126 129 133 134 132 130 129 127 124 120
168 210 233 229 144 179 210 221 221 222 232 247 243 268 287 298 303 308 310 310 309 308 309 301 295 355 35 88 103 108 111 114 119 123 130 134 134 132 128 125 122 120 117 114
164 238 253 272 283 265 245 237 229 229 234 248 264 273 283 293 299 302 302 300 299 305 309 312 327 90 89 95 100 105 108 112 120 126 130 131 127 123 120 118 116 113 111 110
174 245 271 266 258 254 256 250 243 242 243 250 264 273 279 289 297 305 309 301 289 291 308 324 49 94 106 106 106 107 110 114 120 125 127 125 123 120 117 114 112 108 106 105
176 212 251 269 278 281 261 243 234 234 237 245 260 273 297 302 307 315 319 306 268 147 65 61 77 92 99 103 108 110 114 117 121 125 125 122 120 116 114 114 111 110 110 111
182 198 243 285 299 252 247 136 141 245 259 253 264 281 292 300 305 340 350 14 103 115 104 94 92 92 94 99 103 106 111 118 122 124 122 120 118 115 112 110 110 109 111 115
193 193 229 261 275 275 266 151 148 256 278 268 274 292 304 307 294 53 36 56 86 99 95 92 93 98 100 103 108 112 116 119 122 122 120 118 117 115 114 113 111 111 112 109
191 194 224 249 271 267 350 123 131 192 266 299 310 312 322 328 321 22 54 75 84 88 90 93 96 101 104 108 113 119 122 122 119 117 114 112 113 113 112 111 108 105 105 106
179 198 218 233 253 270 291 125 132 256 293 318 315 319 331 340 12 62 76 86 92 95 97 100 101 103 109 116 119 120 118 116 116 114 110 106 104 105 107 106 105 106 105 107
181 192 199 200 225 251 217 140 233 273 298 300 312 331 340 64 89 91 95 99 102 105 108 109 111 112 115 121 122 118 115 113 111 108 104 101 101 104 107 107 104 102 102 97
191 200 195 203 226 254 203 235 253 277 295 317 329 337 27 135 114 105 107 110 112 112 112 116 119 117 114 114 119 119 118 117 113 107 104 103 100 97 100 103 104 99 88 73
218 211 240 261 263 275 280 280 304 20 350 8 6 323 175 137 125 118 115 112 111 111 116 122 121 118 113 111 111 114 117 117 112 108 106 105 103 98 88 82 84 86 76 60
256 204 232 254 270 277 274 6 40 66 66 55 38 37 98 125 125 121 117 114 112 111 110 110 112 111 109 110 109 110 114 115 110 107 105 102 99 101 94 81 70 78 83 91
225 215 221 243 281 311 38 53 57 78 73 77 79 73 81 111 119 116 113 112 114 114 110 106 105 107 109 109 108 107 109 115 114 110 105 102 101 97 98 97 79 77 105 94